GFSWCAN_2pvu_pres_177.txt.gz
Presure
328 320 316 329 322 314 311 310 310 309 309 309 310 311 311 312 314 317 319 320 322 331 328 345 349 361 360 339 342 337 336 337 340 354 375 364 365 368 344 355 340 332 333 334 335 382 348 336 337 324 289 275 331 314
334 325 312 305 299 299 300 298 297 315 314 322 326 330 340 347 352 353 345 342 346 350 345 343 371 407 416 396 378 379 414 408 360 347 369 347 350 348 338 328 322 323 323 329 337 335 333 318 321 314 309 342 333 327
307 300 296 291 290 289 304 308 308 302 299 316 326 336 343 359 364 358 350 349 345 354 413 386 377 381 426 415 423 430 411 372 373 334 318 313 331 331 331 336 341 338 340 353 356 376 361 334 325 314 308 307 305 304
285 287 292 295 311 313 301 301 303 318 320 324 338 378 386 400 412 408 407 408 403 389 398 379 382 383 387 395 366 361 344 334 319 308 318 328 210 333 332 323 347 337 366 356 368 362 360 364 337 327 326 319 326 331
295 297 306 316 299 301 302 300 311 319 322 332 354 441 437 412 401 396 398 388 383 374 370 356 370 372 369 334 324 332 336 304 308 302 327 309 315 330 325 326 328 323 333 366 344 328 348 338 349 352 347 324 328 314
306 312 299 298 294 292 302 313 319 313 323 338 363 390 422 406 394 387 378 384 368 355 356 353 375 351 346 326 317 318 313 315 325 313 306 305 309 315 353 333 330 333 329 347 360 337 342 346 345 333 312 332 312 316
294 292 291 293 297 303 306 314 321 319 326 338 360 369 380 387 388 392 375 379 355 347 346 375 356 355 332 334 344 335 321 323 328 329 323 323 329 340 338 365 327 326 325 320 341 325 320 315 299 290 297 311 308 322
303 301 301 303 307 309 321 314 318 324 331 334 359 374 368 375 380 392 391 384 358 350 362 361 375 376 361 344 355 345 358 351 332 331 338 327 334 357 368 334 338 345 329 333 331 329 318 302 309 304 277 306 308 296
321 320 321 321 325 326 317 323 326 324 334 347 358 376 369 384 394 412 392 382 405 377 397 382 377 360 367 344 339 349 365 361 356 327 324 335 334 316 332 338 346 352 325 331 351 318 308 308 301 296 298 300 313 297
324 314 321 318 323 326 325 330 328 334 340 342 370 394 398 399 396 400 397 411 352 341 345 347 345 349 334 326 326 311 292 291 298 297 300 307 310 308 320 343 283 313 332 332 295 300 315 294 296 273 288 291 286 280
333 324 321 327 329 329 333 332 335 329 344 365 398 394 388 379 365 343 332 325 319 315 312 310 305 301 297 292 290 292 293 302 297 300 302 298 300 300 307 320 330 325 328 345 327 310 288 287 285 278 282 280 272 265
333 331 326 336 337 339 334 336 331 351 368 394 357 339 325 313 309 304 305 302 302 299 292 285 288 280 285 290 294 292 295 290 286 288 292 290 287 291 300 318 348 359 354 299 295 287 286 277 267 282 269 271 271 264
338 332 341 341 347 342 337 331 345 333 330 321 312 310 307 300 308 305 303 302 294 285 278 280 285 287 283 284 291 286 280 280 283 290 289 288 280 301 314 302 287 283 286 284 283 285 278 273 271 272 272 270 273 268
345 344 303 351 333 340 329 343 324 320 338 307 301 301 313 308 312 305 298 296 281 282 285 280 274 280 276 272 270 279 281 285 280 278 278 271 282 294 283 279 271 275 280 275 275 280 269 259 263 275 269 263 270 263
352 336 343 340 345 329 336 320 322 334 304 301 308 304 313 309 302 293 290 286 281 272 273 279 270 282 268 272 271 277 272 284 270 276 278 278 278 289 297 268 277 284 275 279 275 265 259 271 270 262 269 264 252 249
296 347 348 251 333 332 323 328 333 311 302 301 305 314 310 305 298 291 286 277 270 276 274 281 285 276 271 273 267 267 277 275 270 275 273 273 276 280 288 307 301 277 288 277 280 283 270 275 270 263 257 249 247 244
292 254 356 336 326 326 338 335 312 307 307 305 300 306 304 300 284 284 277 282 283 278 274 272 268 266 269 276 269 273 268 267 272 268 264 264 265 269 273 281 294 304 289 281 282 278 269 266 254 246 246 244 241 236
369 340 341 332 335 348 321 309 283 309 313 303 286 297 289 287 284 283 278 282 280 275 271 265 268 276 269 269 269 270 262 261 263 251 259 255 256 257 250 260 263 270 271 266 260 244 247 242 248 241 235 234 234 236
350 347 341 267 347 325 310 314 271 317 294 299 289 280 274 279 265 265 258 271 261 260 267 267 272 270 272 268 266 261 260 259 258 250 255 253 250 254 256 267 263 252 250 246 238 246 245 240 239 238 235 232 238 244
340 303 338 342 318 266 296 284 295 269 278 284 288 277 270 272 269 265 269 266 260 262 266 268 269 266 263 258 257 254 251 251 254 250 250 248 256 260 258 263 259 246 247 248 230 248 242 239 238 240 235 239 239 236
305 310 351 292 286 283 287 300 281 269 270 294 275 271 278 269 269 277 268 271 270 264 265 263 259 254 257 254 257 256 253 249 246 247 248 264 258 264 261 259 270 255 244 247 228 238 240 235 235 235 233 228 227 231
291 288 279 292 276 297 292 281 273 277 280 278 286 281 284 286 285 278 267 267 271 265 265 262 254 256 257 250 250 253 247 246 248 249 263 260 261 256 254 270 261 274 267 245 245 244 239 231 234 235 230 238 235 237
302 294 286 282 279 281 269 281 290 271 277 274 276 278 275 273 277 265 271 278 268 264 263 255 257 255 258 251 251 252 254 252 257 258 262 267 261 255 257 270 272 267 272 274 256 247 244 240 239 235 237 238 238 240
312 300 301 292 289 283 280 274 275 272 265 265 264 265 279 274 262 260 270 270 264 264 259 262 261 255 251 250 254 258 258 258 261 264 265 269 273 272 273 272 266 265 268 270 273 262 240 238 236 236 235 239 241 238
338 302 325 313 317 310 298 290 281 284 275 273 270 272 270 265 262 264 262 263 264 265 259 259 257 257 261 268 268 258 258 261 266 272 276 272 272 267 263 260 260 262 265 266 267 268 240 239 241 240 241 237 246 234
284 294 318 325 322 321 310 309 311 310 301 292 285 282 279 271 271 269 267 272 271 272 271 273 270 263 264 270 265 261 261 259 264 263 278 276 263 261 262 261 260 259 260 261 257 254 252 246 245 246 246 245 248 249
295 288 290 297 307 359 382 362 331 322 317 314 309 309 309 305 295 286 281 278 275 274 270 266 265 272 273 270 268 265 265 269 269 273 280 287 268 263 260 258 259 258 257 258 258 259 259 259 260 260 259 256 251 254
305 301 295 291 295 306 305 310 340 347 344 366 375 366 350 328 324 317 319 316 306 298 289 284 279 280 282 270 267 275 274 275 274 275 279 284 282 256 258 256 257 260 260 260 260 260 258 254 253 260 261 260 255 261
317 309 310 304 299 301 303 309 309 316 319 372 381 368 345 336 330 325 316 364 376 368 336 330 323 316 299 289 282 282 281 266 281 282 279 269 278 278 267 264 264 263 264 264 264 263 261 259 257 256 260 262 265 265
334 324 316 313 307 307 304 306 308 310 316 324 325 349 370 363 363 367 364 355 339 326 322 317 348 382 442 361 323 303 293 283 281 276 264 269 276 274 268 268 268 264 265 256 257 256 254 256 257 258 263 265 265 266
347 335 329 320 315 316 309 309 311 313 321 319 330 332 339 391 378 373 368 366 366 358 344 333 336 486 460 449 432 391 328 313 297 289 285 279 276 271 266 266 266 265 266 265 264 264 263 263 265 266 269 275 277 277
350 345 338 328 325 323 321 316 312 313 321 318 326 334 337 371 403 392 380 374 361 347 342 326 515 499 483 420 434 424 411 388 330 316 302 292 286 285 281 280 278 276 275 275 274 274 272 273 275 277 278 281 286 289
349 340 343 340 334 329 329 326 320 316 319 319 325 337 343 344 399 386 376 373 353 338 324 482 494 500 496 462 440 424 410 363 389 378 347 322 312 305 298 292 290 287 286 286 285 283 282 285 287 289 292 297 302 302

GFSWCAN_2pvu_pres_180.txt.gz
Presure
339 333 328 324 322 328 323 319 325 324 322 321 321 321 319 319 321 323 322 326 331 339 335 335 337 339 340 340 344 348 350 348 351 354 356 360 371 367 369 392 379 363 373 367 349 342 350 332 345 380 376 357 355 359
316 313 332 323 318 327 321 311 310 308 308 305 303 315 318 321 325 331 333 337 345 360 363 354 339 329 330 328 337 335 342 333 336 336 339 345 339 339 349 396 362 388 347 353 342 351 359 330 333 346 365 339 331 323
327 319 325 327 313 307 301 299 296 297 312 308 306 305 310 313 317 318 330 342 344 353 353 351 347 353 356 347 344 359 384 443 386 380 387 412 368 345 334 344 359 357 349 339 342 329 331 326 332 337 346 328 340 338
337 319 307 298 293 289 291 307 313 303 298 303 306 308 323 325 338 367 409 400 399 376 384 384 400 413 422 388 414 401 415 401 382 395 414 356 338 333 325 325 340 328 342 336 338 343 336 330 324 315 314 314 320 313
292 288 289 294 295 307 311 301 300 297 301 308 317 318 331 339 413 430 414 396 394 406 425 394 382 376 388 380 365 377 383 379 362 350 339 321 317 320 325 325 340 327 340 344 341 339 343 346 348 373 379 373 331 325
298 296 299 304 308 303 295 292 295 301 309 313 319 328 332 351 420 409 388 391 393 389 379 362 364 369 373 358 361 351 341 340 324 324 319 319 321 336 341 337 338 313 323 334 336 326 359 317 350 354 350 343 351 361
303 306 306 303 295 290 294 297 302 304 312 316 326 328 342 370 377 393 391 387 379 375 374 353 351 364 352 352 336 338 337 329 323 331 330 331 327 350 323 321 301 313 313 330 327 330 338 319 347 320 325 320 329 334
298 297 296 296 297 297 299 306 305 318 313 322 328 329 354 375 379 385 392 398 379 387 360 352 355 364 365 337 332 327 329 327 334 317 320 333 356 349 307 295 291 309 323 331 337 353 334 330 347 330 329 314 323 308
309 307 307 306 305 306 313 318 325 321 323 330 327 348 370 387 396 399 398 401 402 350 369 367 368 365 375 343 342 345 326 322 332 333 337 356 318 341 306 348 351 347 353 335 346 317 333 322 332 311 311 309 284 303
321 323 327 321 322 320 316 324 328 325 332 329 345 382 410 415 424 404 409 416 421 377 375 366 390 378 370 365 368 346 312 307 303 308 315 314 311 311 314 318 316 320 349 353 399 345 324 317 279 285 291 272 302 286
324 322 323 313 312 319 326 328 332 331 333 354 409 426 402 340 328 318 314 311 309 305 306 308 310 311 309 297 296 300 297 301 301 287 290 291 287 289 300 316 318 314 315 314 306 335 313 287 288 292 284 295 302 290
331 334 328 316 321 332 331 336 331 346 367 419 384 328 318 308 309 304 301 308 311 309 307 305 297 292 284 286 278 284 279 285 283 286 286 290 286 298 297 310 321 333 342 341 335 320 336 295 275 284 275 281 283 274
348 341 325 326 336 340 334 336 353 380 391 337 318 315 307 308 325 318 304 307 304 293 293 282 282 275 289 289 279 278 273 282 286 282 278 283 278 289 298 302 332 356 383 381 319 302 286 286 274 270 269 271 272 262
354 313 336 339 347 337 345 347 359 357 331 313 308 310 313 324 316 312 307 298 289 286 275 285 286 284 275 278 280 279 273 274 280 282 275 274 279 290 295 296 285 276 290 286 286 286 286 278 271 265 273 260 259 265
336 350 351 331 343 350 339 340 338 322 302 303 304 320 321 317 311 301 296 287 285 284 280 278 279 280 281 282 279 280 278 277 278 279 285 283 281 296 285 277 269 278 269 278 274 286 272 251 272 274 263 256 253 266
349 363 351 335 343 333 330 335 314 306 301 303 316 311 306 300 289 292 277 284 277 276 284 273 267 265 264 271 271 279 273 271 273 271 269 272 275 284 297 279 270 269 280 270 279 258 285 261 265 267 257 258 270 270
275 362 341 347 331 272 256 330 310 294 301 307 302 302 294 291 282 281 274 275 275 279 285 279 269 268 273 264 275 274 268 270 264 265 260 263 264 268 268 274 294 298 281 280 275 286 290 267 261 264 272 281 259 253
349 346 344 339 333 330 334 340 306 297 304 297 299 294 284 268 279 269 277 276 275 281 280 270 257 269 258 271 273 271 266 262 259 254 257 255 259 259 256 259 264 271 293 295 288 276 276 276 275 272 245 242 247 241
344 345 349 349 355 351 341 311 312 306 302 297 298 295 291 270 273 273 271 277 273 272 268 263 269 273 268 273 271 270 265 262 256 252 256 254 250 255 256 256 266 266 265 262 261 257 251 250 244 247 250 241 235 235
290 319 318 334 328 317 319 291 325 307 278 273 281 292 286 272 268 271 263 268 274 268 269 266 272 268 274 272 262 268 265 262 262 256 247 249 253 254 250 258 260 268 259 255 251 240 241 248 248 239 240 238 240 236
296 294 289 322 290 307 285 278 293 288 290 288 278 267 262 272 276 276 268 272 272 264 266 266 270 271 268 267 261 260 259 257 255 254 250 252 253 253 264 262 262 269 264 261 251 248 244 234 243 244 238 235 236 241
306 300 293 293 295 299 271 277 275 272 288 295 286 273 277 279 276 276 280 278 276 271 270 270 267 267 263 259 258 258 258 258 252 251 250 250 250 252 260 265 262 259 260 269 257 272 255 249 247 237 238 237 237 236
265 306 302 300 295 293 290 285 284 283 271 283 285 276 285 277 275 276 282 287 284 270 272 271 271 269 266 261 261 260 254 254 255 251 250 250 253 259 259 261 260 263 254 250 267 261 260 272 272 256 244 245 245 241
290 285 278 290 315 303 296 288 287 285 280 278 277 273 271 266 279 269 280 277 277 277 277 279 262 266 263 259 260 259 262 262 255 249 255 262 261 262 267 260 266 273 271 264 269 269 266 265 265 267 271 272 267 240
308 295 291 285 287 288 330 330 311 300 292 287 284 282 280 283 275 271 272 273 271 270 271 268 262 260 262 262 263 262 262 259 256 257 269 258 254 260 265 272 273 271 272 271 266 262 262 262 263 263 262 262 259 249
331 324 311 301 292 290 284 287 296 295 323 335 317 306 302 296 290 285 282 281 281 278 278 275 270 266 267 269 265 264 263 262 260 262 267 267 261 261 257 258 260 275 275 265 263 261 260 261 261 260 259 258 259 260
325 341 334 326 314 306 297 293 291 291 294 299 316 350 318 346 340 327 318 308 304 299 294 292 290 287 281 278 277 273 274 274 274 271 266 264 264 264 261 262 270 271 278 280 268 264 261 260 260 259 259 260 263 264
310 340 339 337 331 329 321 312 300 298 298 299 297 299 303 307 310 306 326 382 382 371 366 341 338 327 312 304 299 294 287 286 282 278 275 272 274 274 274 274 276 274 272 282 288 267 265 263 260 259 261 262 262 260
297 334 337 345 342 339 335 325 315 315 313 308 307 304 303 310 319 318 316 315 314 383 389 360 340 341 331 317 365 373 368 331 306 297 287 283 283 276 275 272 268 266 269 278 274 277 283 275 268 253 252 253 256 264
307 322 343 327 347 349 343 336 329 323 320 321 319 315 312 314 322 313 315 328 333 329 376 400 370 367 364 371 372 359 335 309 304 340 365 369 322 294 282 278 279 276 270 266 273 275 273 272 271 270 271 269 266 268
315 318 336 341 340 345 353 346 341 331 329 326 329 329 323 321 323 318 319 326 329 334 336 400 404 398 386 375 374 371 368 365 346 334 332 315 319 382 350 310 288 283 280 277 279 278 275 272 269 267 267 268 269 272
329 325 337 340 331 338 339 355 352 341 335 334 332 331 332 331 330 325 327 327 330 350 345 411 396 381 388 380 371 358 345 317 318 389 438 419 408 392 376 351 335 314 295 289 282 279 279 277 276 276 276 277 280 284
331 338 344 352 341 338 337 342 345 330 349 348 342 337 339 337 333 330 332 331 334 345 401 400 396 385 369 358 342 372 469 513 487 469 446 417 393 391 382 371 353 335 325 317 307 301 296 291 289 288 287 288 291 296

GFSWCAN_2pvu_pres_183.txt.gz
Presure
337 348 355 367 362 356 345 339 341 326 323 325 323 324 326 327 327 326 327 332 338 340 343 346 341 337 340 346 344 348 327 334 335 337 337 337 364 371 391 397 391 380 383 396 396 398 325 385 373 385 354 349 370 399
347 347 347 339 332 326 321 324 321 315 322 317 313 311 309 308 312 318 315 318 325 328 316 321 324 323 329 336 339 342 344 339 338 342 345 350 355 365 364 371 351 361 356 360 377 397 382 366 379 359 345 335 345 374
323 333 323 318 313 326 313 320 316 308 304 304 299 311 306 307 308 310 310 317 328 337 333 324 321 331 345 345 355 365 330 329 333 327 332 341 350 349 358 353 337 331 332 340 371 381 358 389 365 345 334 335 317 320
313 324 338 323 318 327 310 304 299 296 296 318 307 303 300 302 304 312 323 328 325 349 408 408 415 422 422 386 358 348 340 355 351 348 351 363 461 418 387 386 354 333 332 329 347 359 348 367 340 337 332 329 323 323
324 316 331 325 309 298 293 293 299 314 306 300 297 300 307 311 318 328 337 342 405 423 425 415 407 419 414 390 364 373 372 375 390 390 399 380 365 380 370 360 348 339 336 337 349 340 353 351 337 336 332 333 342 337
347 300 294 290 293 294 301 308 307 297 292 297 299 307 311 316 329 334 344 367 417 407 408 401 391 372 385 379 366 367 359 365 378 353 358 368 355 345 348 340 335 336 330 326 346 343 332 332 356 352 344 336 329 329
298 297 296 297 301 305 306 297 291 296 299 297 304 315 319 328 329 346 383 389 403 399 383 375 361 365 361 361 350 344 357 360 348 346 348 350 342 341 328 317 342 303 307 309 311 339 324 324 340 330 337 320 339 334
303 303 304 305 301 297 296 297 299 301 304 309 322 323 327 326 348 361 387 390 399 393 382 362 358 347 356 351 342 352 363 345 329 341 346 329 315 330 293 292 297 312 319 324 323 326 332 317 322 323 333 345 321 315
303 302 299 297 298 302 303 299 304 310 319 326 324 326 332 350 396 409 414 400 379 372 410 365 357 344 365 371 362 368 310 333 310 315 325 336 329 313 301 315 327 327 306 320 327 341 340 340 350 342 347 325 325 328
316 313 311 311 309 309 311 319 314 319 327 325 324 346 409 421 413 402 353 350 349 342 343 344 354 370 327 368 334 335 339 367 324 309 309 310 324 331 314 328 323 320 324 310 315 348 384 326 335 340 335 334 284 278
319 320 321 317 315 316 313 316 325 328 327 326 393 407 333 325 325 321 316 308 316 314 296 314 316 311 311 300 297 295 296 298 298 289 293 292 298 299 301 303 305 309 307 322 322 329 346 339 344 294 283 298 280 298
322 317 321 320 323 321 321 329 331 330 336 422 332 333 313 319 318 325 329 323 328 316 321 318 304 299 300 296 297 293 285 284 281 277 273 277 289 298 300 306 315 324 324 329 333 326 342 289 283 291 294 286 291 295
339 331 333 325 323 328 333 333 328 344 427 330 324 310 324 323 337 340 315 324 315 307 298 290 288 286 287 290 279 277 286 278 282 285 284 276 285 282 297 297 321 344 353 323 351 328 323 290 289 289 291 288 280 276
356 348 328 329 335 335 336 329 353 417 337 325 327 316 314 320 337 313 315 293 296 284 279 280 283 278 283 278 281 274 276 275 279 275 266 276 282 293 292 288 283 290 293 315 321 315 297 294 291 277 273 275 265 269
341 336 337 339 345 340 333 351 395 314 327 304 320 296 334 314 308 296 292 287 281 284 279 282 284 277 272 264 263 272 280 269 270 272 276 275 277 283 281 274 279 273 272 272 289 290 292 285 272 266 272 266 266 266
357 352 355 348 335 343 344 370 360 328 318 310 298 312 301 299 286 285 275 280 286 283 285 280 279 275 271 275 272 270 270 270 269 272 269 272 276 280 287 269 265 272 274 276 276 278 279 264 272 272 273 268 269 260
356 349 346 345 346 343 350 365 318 311 295 312 309 304 288 283 257 276 277 275 274 269 274 275 267 261 268 268 270 270 271 266 264 267 263 260 260 266 270 275 289 286 276 271 271 262 275 277 258 253 253 256 253 260
351 352 356 342 340 330 298 308 299 303 315 307 303 299 283 275 259 264 259 269 270 271 273 269 270 270 264 261 275 271 268 262 263 258 261 258 258 256 255 257 265 269 277 294 290 276 281 263 263 266 265 262 273 272
360 355 347 344 346 346 340 298 307 315 308 305 298 272 279 278 264 261 272 270 274 284 279 269 254 276 260 272 271 274 268 265 260 259 255 254 255 257 253 250 256 263 267 270 279 289 286 278 279 279 275 276 269 248
315 343 294 346 293 342 322 301 309 304 306 299 294 287 279 281 268 269 272 273 278 276 278 269 265 273 276 271 279 276 273 261 265 260 256 252 254 253 254 255 254 259 260 269 262 261 262 260 257 255 251 244 251 245
292 307 310 338 294 290 291 326 295 291 292 286 287 299 257 272 276 275 278 272 270 272 273 272 269 270 276 280 273 273 262 269 263 260 261 257 250 255 258 256 254 260 264 263 262 265 255 253 250 237 246 249 250 240
307 296 291 291 291 307 284 288 299 286 298 287 292 281 277 277 277 279 280 280 282 276 277 270 269 271 271 273 270 269 264 263 261 257 255 254 254 257 256 256 253 257 261 266 268 259 261 265 262 256 251 248 247 240
322 313 297 293 291 285 283 293 293 290 288 283 280 289 292 283 286 276 280 278 274 275 276 279 275 275 271 271 269 265 263 261 260 260 261 259 258 256 250 250 257 260 261 261 262 262 263 257 256 267 264 263 268 270
290 337 313 316 301 290 287 281 280 305 300 297 292 281 284 286 284 278 280 281 271 273 272 289 293 293 271 273 274 269 265 259 254 260 260 257 259 259 249 251 258 261 261 261 265 262 263 270 272 268 270 272 273 271
293 289 313 316 315 314 311 301 295 286 281 285 306 306 305 298 300 300 291 288 290 290 287 281 278 274 268 269 268 270 263 263 260 260 263 263 262 261 257 257 260 265 251 256 262 271 273 272 268 270 274 271 266 264
297 303 301 298 324 326 318 319 317 307 300 293 286 285 288 284 304 318 307 306 303 302 299 297 296 295 296 290 279 275 272 272 268 265 264 262 261 261 260 258 259 262 267 264 259 256 254 258 265 275 271 266 263 261
304 298 303 302 302 327 318 329 331 326 319 312 307 304 300 298 295 293 292 290 286 284 305 302 322 323 317 311 310 310 303 292 285 278 274 272 272 272 270 267 265 268 267 269 271 267 262 260 265 264 269 280 278 267
304 306 309 311 318 310 319 330 349 340 334 332 322 312 313 309 306 306 305 301 300 299 308 314 313 308 303 312 365 366 369 366 370 321 303 289 286 282 279 277 275 273 272 273 274 274 272 273 274 274 270 263 270 277
304 311 306 302 321 329 331 328 324 329 337 348 345 332 321 321 323 321 317 315 317 313 310 314 311 312 319 325 323 319 344 394 359 347 339 356 364 320 309 300 290 285 281 280 279 277 275 270 268 270 264 269 273 274
290 314 317 307 316 329 340 341 338 339 328 333 327 352 343 337 337 334 329 328 325 324 325 326 320 315 320 324 326 330 331 336 374 388 375 375 362 337 315 328 355 354 316 298 294 292 286 283 278 274 274 277 277 275
301 337 320 319 306 328 351 349 351 348 337 333 329 334 328 342 351 348 345 341 332 329 328 331 328 327 324 323 334 341 338 408 412 404 395 388 372 358 360 370 347 302 297 302 322 343 342 323 306 293 286 285 282 278
325 336 329 333 307 318 351 356 351 336 333 337 339 343 335 335 331 319 361 359 350 339 340 338 332 330 331 328 339 420 416 403 395 392 384 378 372 362 357 355 349 341 335 326 314 328 300 295 327 321 317 314 300 289
349 338 337 332 328 337 349 350 341 335 333 333 335 344 345 341 344 332 320 349 366 360 351 342 342 339 331 338 348 409 411 398 382 365 349 351 342 369 387 360 337 323 320 316 374 361 353 341 336 327 322 316 311 305

GFSWCAN_2pvu_pres_186.txt.gz
Presure
299 297 295 297 299 322 335 341 360 373 361 352 343 340 338 332 333 332 332 336 334 337 331 338 343 327 314 311 311 316 315 314 318 320 322 323 328 333 336 339 336 333 325 332 335 337 246 327 346 357 409 420 408 403
341 340 338 338 330 327 349 367 361 352 339 332 329 325 323 326 323 315 310 312 313 315 303 316 317 318 328 336 339 350 350 330 322 320 324 328 333 334 335 339 326 328 349 356 374 390 395 383 386 398 388 408 409 391
336 332 328 332 344 350 341 336 327 325 323 319 320 312 309 306 304 304 306 309 315 319 314 306 305 313 324 326 335 336 322 321 323 328 333 337 344 346 350 354 355 357 351 352 355 366 354 355 368 376 371 395 382 361
363 351 346 327 338 328 314 322 318 320 312 305 301 300 309 310 306 307 307 310 315 323 337 331 331 336 343 346 347 347 335 335 335 337 346 356 367 377 369 373 373 362 373 358 362 345 340 347 344 344 376 367 383 350
389 321 317 309 308 330 317 323 310 301 298 293 306 308 302 298 303 304 310 316 320 330 335 349 409 419 429 433 435 426 426 429 397 367 381 353 349 380 381 382 370 376 381 389 392 344 345 344 349 356 360 351 359 351
341 335 343 326 316 327 309 299 294 289 305 306 299 293 296 300 306 314 319 320 326 342 366 419 414 422 403 388 396 398 380 373 362 377 393 387 374 376 371 365 350 359 357 362 352 343 348 333 334 330 341 346 354 343
327 327 333 319 299 294 294 295 303 303 299 293 294 297 301 309 325 323 319 332 353 395 418 398 398 381 371 378 370 363 364 363 368 382 366 365 351 354 321 312 300 347 349 326 321 329 319 321 330 335 317 320 335 335
306 304 301 300 299 299 301 300 298 295 293 297 301 309 322 325 325 329 347 390 408 409 408 387 380 375 366 373 362 363 357 350 344 345 313 307 303 303 310 306 309 316 342 303 318 318 329 319 312 317 314 327 332 328
307 304 303 300 299 298 296 294 295 297 300 309 315 323 325 324 354 416 428 416 407 427 407 380 376 361 353 376 376 329 315 330 332 325 328 328 333 334 291 315 303 293 354 326 321 320 314 328 325 328 348 327 329 319
312 310 307 300 299 301 300 300 307 313 317 317 326 327 324 424 359 327 325 327 329 329 332 332 329 318 325 313 306 328 316 302 304 303 304 302 302 294 302 301 301 304 302 304 311 307 307 327 336 385 377 369 335 332
315 320 318 314 316 316 315 313 313 315 324 329 322 405 337 325 324 315 317 321 327 308 312 343 338 330 331 321 308 303 295 286 298 296 296 295 291 291 296 298 302 305 296 313 302 313 317 328 414 352 350 348 334 316
322 315 315 310 311 313 317 321 320 331 327 325 384 319 327 311 316 336 333 351 342 325 323 311 303 304 307 299 290 288 284 285 276 276 280 280 286 296 290 298 306 313 327 336 344 330 324 327 328 350 325 302 288 289
334 327 313 312 317 325 321 327 336 327 329 343 311 321 274 312 338 344 328 319 305 300 296 299 296 287 282 281 278 276 274 280 274 273 282 279 287 285 282 283 285 294 323 339 324 352 343 342 289 284 298 287 285 288
347 336 327 325 327 329 338 337 334 352 335 304 281 313 314 297 329 312 308 298 294 294 289 289 277 278 277 278 279 274 278 272 269 276 258 273 278 281 281 275 273 284 284 311 347 337 303 281 257 273 289 293 290 287
359 346 343 337 341 343 339 339 357 381 297 299 322 300 313 320 309 301 299 289 292 289 277 284 273 275 272 271 275 278 262 268 271 270 262 263 277 277 268 274 270 274 271 282 298 326 285 288 279 294 284 280 281 271
363 353 349 349 343 346 345 368 377 308 285 297 302 326 311 301 288 289 276 279 283 287 274 276 268 267 268 273 275 259 268 268 269 267 269 271 275 281 284 278 268 269 273 268 271 276 291 283 280 272 265 272 262 265
367 359 355 354 345 345 358 389 318 323 311 308 316 297 287 284 271 274 283 277 275 280 274 272 270 271 277 271 268 263 269 269 268 268 266 266 266 266 264 267 271 286 291 282 274 262 271 285 262 260 263 264 273 270
345 322 347 347 336 316 348 324 322 320 322 305 300 289 271 275 259 255 259 272 269 270 273 266 261 270 268 264 265 269 270 268 263 263 256 256 259 259 256 257 260 262 261 273 289 286 279 261 268 277 264 260 257 257
367 307 300 352 357 324 329 323 322 324 313 312 294 290 278 271 272 268 263 262 263 268 267 267 267 261 272 266 268 277 270 267 267 259 258 253 250 256 255 251 251 254 259 262 263 269 289 292 281 276 272 269 275 264
314 303 306 308 297 317 297 312 319 316 305 290 299 282 288 283 273 270 270 272 275 274 276 280 275 264 255 269 276 271 271 276 263 268 262 259 259 249 256 256 255 252 251 255 258 261 260 260 263 268 267 268 271 271
334 321 318 301 312 295 296 290 302 310 271 294 308 305 284 289 280 280 276 273 271 275 274 268 272 278 262 268 277 273 271 273 273 265 258 258 258 252 256 251 257 257 254 253 262 262 257 259 260 256 253 251 244 244
298 294 313 313 307 305 295 294 284 287 287 284 283 285 293 290 290 291 268 274 274 275 278 278 273 278 273 268 269 269 272 268 267 264 268 262 259 259 256 256 255 255 255 249 249 253 261 264 263 259 258 259 259 257
298 297 290 289 297 314 307 312 294 293 291 281 293 278 276 280 289 289 288 278 277 274 274 271 271 272 272 276 277 274 271 270 268 268 267 263 260 260 260 258 256 258 257 247 249 255 256 258 260 262 262 262 259 256
279 294 292 292 291 290 314 307 304 313 291 290 286 285 293 280 285 290 286 281 283 285 284 285 282 285 266 268 275 282 285 281 274 271 269 267 263 263 258 261 260 251 252 255 250 256 257 259 256 255 262 267 267 266
253 263 301 298 294 291 298 301 301 305 315 311 304 297 291 292 289 290 280 286 289 292 295 297 298 294 292 290 287 286 278 272 274 272 278 264 263 263 265 264 263 263 264 262 261 255 254 255 256 257 257 257 260 262
257 254 272 278 293 301 294 303 311 307 306 313 318 323 331 322 309 302 289 292 291 289 288 290 292 307 310 306 305 309 313 316 313 286 275 276 280 279 267 266 265 265 265 264 263 262 262 259 259 260 264 264 260 258
272 257 254 293 312 305 301 303 293 310 315 317 315 320 328 327 330 325 318 309 305 299 297 297 297 296 295 297 298 305 304 306 338 382 369 330 313 286 282 278 274 275 276 274 272 270 268 267 266 264 266 268 271 269
279 265 252 312 316 322 307 313 307 295 304 321 331 328 334 333 325 341 342 334 325 319 315 314 310 306 305 306 309 306 304 309 313 313 320 314 311 365 381 378 329 290 286 283 280 278 275 272 269 266 265 266 265 270
268 261 282 314 326 329 333 327 322 308 305 315 332 337 343 340 339 339 328 325 349 344 337 327 324 324 321 318 318 320 319 319 318 313 312 319 326 334 330 322 327 348 355 364 315 299 289 285 282 279 277 276 276 274
265 260 328 328 336 329 328 330 330 325 320 323 328 334 341 324 327 325 329 332 331 330 340 349 345 340 338 334 327 330 328 331 330 320 317 318 320 328 332 338 338 332 380 359 336 332 351 354 323 298 293 290 290 289
312 328 330 342 334 337 340 334 329 329 333 335 331 337 336 326 324 321 326 331 334 341 336 328 318 317 353 352 346 332 329 338 338 336 334 322 327 340 368 408 414 408 388 358 367 362 349 324 314 315 322 308 343 337
338 332 337 337 338 329 336 340 340 338 340 337 333 337 332 333 331 334 337 331 330 329 333 341 338 326 329 352 360 356 345 335 333 339 332 336 343 337 409 398 392 388 386 380 371 357 343 344 351 341 313 303 294 292
327 330 334 334 334 334 332 336 338 330 323 327 330 334 335 338 345 362 372 403 390 379 369 345 333 338 322 331 343 350 349 347 344 329 336 329 340 409 396 380 370 368 362 359 358 355 354 349 343 340 338 335 332 328

GFSWCAN_2pvu_pres_192.txt.gz
Presure
319 317 315 313 313 310 307 302 302 300 302 302 301 294 295 293 292 296 296 297 303 307 341 362 361 356 355 351 344 349 350 347 349 350 355 357 357 346 339 325 321 321 222 321 167 220 119 95 246 319 326 335 247 252
312 307 311 310 304 305 302 301 298 299 298 296 298 300 296 295 304 318 370 384 377 354 340 342 340 337 332 332 332 327 322 321 324 326 334 343 348 354 345 336 310 312 312 319 318 320 325 321 326 330 258 339 344 222
314 309 305 303 302 300 299 299 298 298 300 299 299 300 315 379 368 347 340 336 334 323 319 314 315 322 320 318 319 315 316 320 327 333 336 338 334 323 326 333 330 325 334 349 358 210 364 158 344 113 358 345 344 345
314 313 312 310 308 306 306 304 305 305 305 317 336 349 346 335 333 323 316 315 313 316 312 306 308 312 311 309 316 327 331 333 339 343 350 349 348 354 360 364 366 312 331 341 369 364 391 393 397 394 384 370 365 362
323 320 320 323 324 326 331 334 333 333 337 338 343 327 323 318 313 309 307 314 310 304 302 298 306 315 325 332 336 336 342 426 447 450 448 444 441 439 418 409 377 389 321 351 362 371 373 368 390 405 417 381 369 359
350 347 345 342 343 342 335 336 336 334 345 320 318 318 310 306 302 313 307 301 306 313 324 329 336 343 337 355 434 415 411 415 402 395 384 396 405 394 392 372 348 332 332 335 345 345 346 350 362 361 362 360 353 349
337 329 334 340 350 350 361 348 330 301 319 316 308 299 304 311 302 300 308 316 324 331 332 340 353 386 448 420 406 397 385 377 375 379 368 336 332 331 340 324 309 307 322 322 315 316 327 338 331 339 330 331 334 334
349 332 345 337 353 341 311 317 327 315 302 297 305 307 300 301 308 314 320 319 354 426 440 439 431 450 400 374 358 366 364 351 330 329 325 324 327 322 308 308 308 302 305 292 308 315 311 315 325 337 327 334 333 330
326 331 328 329 330 331 332 304 297 299 304 302 300 306 309 317 316 324 357 382 387 383 325 381 355 346 340 329 325 323 312 316 321 308 295 288 294 291 291 289 298 297 296 296 299 299 306 311 312 315 313 316 320 332
319 312 310 310 308 305 302 304 304 299 304 307 309 319 316 325 340 311 343 331 341 325 338 338 326 324 318 318 324 317 307 296 295 289 291 291 295 294 295 295 299 302 303 308 316 319 319 316 308 301 320 320 317 320
321 315 313 311 308 307 307 307 307 312 311 314 316 323 336 320 313 340 314 327 325 324 332 321 318 317 303 300 297 291 284 287 291 285 290 300 293 283 274 274 282 285 296 305 316 328 332 340 336 328 314 319 330 338
323 320 319 316 315 315 314 312 312 316 314 320 320 321 377 288 319 324 334 313 317 307 306 301 292 296 293 288 278 276 284 285 290 291 286 283 270 273 281 280 282 284 292 309 315 322 341 341 329 334 356 382 395 393
330 322 318 314 315 313 317 319 316 322 315 324 334 378 297 319 320 334 320 320 313 306 296 285 286 284 282 277 274 285 286 289 283 284 279 273 276 268 268 272 276 281 289 296 289 279 353 360 332 327 328 328 324 318
343 338 330 326 324 323 327 314 325 325 334 336 321 318 323 335 320 314 310 303 287 286 283 281 272 275 276 278 258 272 280 273 278 272 273 246 270 268 258 269 270 272 282 278 282 282 284 274 293 304 275 302 299 299
357 348 341 332 331 335 330 330 332 342 295 297 315 285 336 311 305 303 296 274 283 281 281 276 277 278 270 274 277 268 267 266 276 274 272 268 267 267 270 267 261 260 260 271 270 270 275 277 276 288 296 292 291 291
362 355 353 350 344 342 341 342 353 387 322 291 301 335 294 309 297 293 293 276 276 282 272 271 273 272 271 272 274 271 270 271 272 267 273 273 275 273 277 279 275 277 267 263 269 271 270 271 260 276 286 286 280 275
319 314 317 361 355 362 369 324 321 314 327 329 316 325 303 290 297 297 283 278 276 278 275 274 273 274 280 276 271 270 270 272 271 267 265 261 263 266 267 268 264 263 267 272 277 278 265 273 263 269 276 274 271 270
305 327 318 311 310 398 344 326 351 334 338 339 320 317 294 283 288 284 282 281 276 276 277 266 273 272 278 278 277 269 273 267 269 266 269 267 263 261 262 261 260 259 257 259 259 266 273 284 271 266 265 256 260 262
272 259 305 307 318 316 302 369 359 353 324 327 312 301 284 286 286 283 283 274 283 283 277 281 279 276 268 271 271 274 267 274 271 268 261 266 265 258 256 256 255 253 255 259 257 256 258 257 265 279 277 266 266 269
281 279 273 251 282 300 303 302 309 301 297 290 293 289 297 292 286 284 281 282 284 281 279 276 276 278 277 276 272 272 262 267 266 267 268 271 263 267 267 252 257 256 254 254 258 255 254 255 257 257 256 256 262 265
268 279 271 296 264 250 295 293 292 292 288 295 293 292 287 289 279 291 294 291 286 278 277 277 277 279 281 282 283 280 280 280 259 263 269 273 276 273 272 267 270 262 255 256 256 255 255 255 254 254 259 260 257 257
269 275 311 315 310 308 264 294 293 286 293 286 288 287 292 294 295 293 288 283 279 280 291 292 292 287 281 281 277 280 283 282 278 279 279 271 267 271 274 275 273 277 265 262 262 258 254 252 254 258 250 249 250 251
262 280 308 319 317 310 310 302 301 302 296 286 291 288 284 278 282 281 292 299 302 301 298 294 291 288 283 279 281 286 288 284 278 278 280 284 285 279 272 273 275 275 275 275 273 275 268 262 261 259 260 259 254 249
261 269 311 308 313 304 308 304 302 299 292 309 313 301 295 299 296 288 285 291 291 298 302 303 316 317 311 302 299 293 289 291 292 293 294 291 284 281 284 289 281 283 277 274 276 277 275 271 264 261 261 260 258 256
254 282 323 330 324 318 311 314 318 313 311 318 306 303 312 319 321 314 309 310 304 301 286 295 306 314 318 310 311 316 324 321 307 288 286 286 289 297 297 297 296 298 292 286 289 286 283 283 282 282 274 271 271 269
256 299 326 330 319 318 320 314 315 313 309 307 307 313 312 317 320 319 319 321 320 318 316 316 299 301 314 323 333 334 347 352 330 327 333 331 314 300 291 285 283 289 288 304 314 315 308 296 287 287 283 282 283 282
263 298 324 328 333 337 331 327 328 323 321 320 319 318 319 317 315 315 318 319 322 324 320 319 321 322 320 316 320 338 341 340 334 326 342 350 334 329 335 320 310 305 301 299 298 293 288 288 297 311 331 307 292 285
291 314 321 327 333 330 334 326 321 321 325 325 323 323 320 316 315 317 319 317 321 322 324 321 324 333 341 337 326 320 326 322 325 328 333 330 329 347 357 345 335 325 316 314 318 324 323 310 305 307 307 291 305 381
313 319 331 335 335 334 330 317 316 320 326 323 314 312 311 312 322 321 318 322 322 323 323 323 321 320 324 329 332 335 328 322 322 323 324 330 334 338 328 320 350 353 347 341 339 340 333 328 319 322 318 304 303 315
321 331 336 338 335 329 328 322 327 322 316 322 326 333 336 336 325 323 334 360 352 332 331 330 327 326 328 330 330 331 332 332 332 329 327 333 331 333 340 343 336 319 322 348 356 352 349 337 335 331 322 316 315 312
330 337 342 346 324 316 319 324 317 311 322 333 329 335 344 349 324 336 352 355 348 339 335 338 474 412 526 511 455 434 386 379 346 347 349 344 352 337 334 335 339 345 324 332 348 362 359 351 340 337 331 323 316 316
333 349 355 309 315 305 315 321 314 311 312 321 323 328 334 337 352 382 403 523 517 519 509 506 501 492 493 501 499 462 453 427 402 394 391 401 392 388 374 356 344 348 325 336 341 355 364 351 339 329 329 330 328 327
350 343 282 318 317 303 302 305 314 317 318 323 325 338 332 345 399 486 423 505 500 499 493 492 492 488 483 481 479 465 444 433 424 416 410 403 397 391 382 373 364 356 345 330 337 339 346 357 348 333 319 343 405 397